Tracking 23731 objects as of 27-Sep-2021
HD Live streaming from Space Station
objects crossing your sky now

CZ-3B DEB

Track CZ-3B DEB now!


NORAD ID: 40193
Int'l Code: 2011-077S
Perigee: 722.3 km
Apogee: 42,251.7 km
Inclination: 25.6 °
Period: 771.2 minutes
Semi major axis: 27857 km
RCS: Unknown
Launch date: December 19, 2011
Source: People's Republic of China (PRC)
Launch site: Xichang Space Center, China (XSC)

Note: This is SATELLITE DEBRIS
aabbcc
Your satellite tracking list
Your tracking list is empty




NASA's NSSDC Master Catalog

Two Line Element Set (TLE):
1 40193U 11077S   21267.91942130 -.00000009  00000-0 -33085-3 0  9993
2 40193  25.5677 119.7959 7453772 304.8391   6.1228  1.86714821 43908
Source of the keplerian elements: AFSPC